This is the latest recevied weather packets stored in our database for station/object DB0FN-10. If no packets are shown the sender has not sent any weather packets the latest 10 day(s).
| Time | Temp. | Humidity | Pressure | Rain* | Wind** | Luminosity | Snow |
|---|---|---|---|---|---|---|---|
| 1787779930 | 26.67° C | 51% | 1020 hPa | - | - | - | - |
| 1787779030 | 27.78° C | 48% | 1020.1 hPa | - | - | - | - |
| 1787778130 | 27.78° C | 47% | 1020.1 hPa | - | - | - | - |
| 1787777230 | 27.78° C | 46% | 1020.2 hPa | - | - | - | - |
| 1787776330 | 27.78° C | 45% | 1020.4 hPa | - | - | - | - |
| 1787775430 | 27.78° C | 43% | 1020.5 hPa | - | - | - | - |
| 1787774530 | 27.78° C | 43% | 1020.4 hPa | - | - | - | - |
| 1787773630 | 27.78° C | 44% | 1020.4 hPa | - | - | - | - |
| 1787772730 | 27.78° C | 45% | 1020.4 hPa | - | - | - | - |
| 1787771829 | 27.78° C | 45% | 1020.5 hPa | - | - | - | - |
| 1787770929 | 28.33° C | 46% | 1020.6 hPa | - | - | - | - |
| 1787770029 | 28.33° C | 46% | 1020.5 hPa | - | - | - | - |
| 1787769129 | 27.78° C | 46% | 1020.1 hPa | - | - | - | - |
| 1787768229 | 28.33° C | 48% | 1020.2 hPa | - | - | - | - |
| 1787767329 | 28.33° C | 49% | 1020.3 hPa | - | - | - | - |
| 1787766429 | 28.33° C | 57% | 1020.3 hPa | - | - | - | - |
| 1787765529 | 28.33° C | 49% | 1020.4 hPa | - | - | - | - |
| 1787764629 | 28.89° C | 48% | 1020.3 hPa | - | - | - | - |
| 1787763729 | 28.89° C | 50% | 1020.4 hPa | - | - | - | - |
| 1787762829 | 28.89° C | 49% | 1020.4 hPa | - | - | - | - |
| 1787761929 | 28.89° C | 49% | 1020.5 hPa | - | - | - | - |
| 1787761029 | 28.89° C | 47% | 1020.6 hPa | - | - | - | - |
| 1787760128 | 28.89° C | 50% | 1020.7 hPa | - | - | - | - |
| 1787759228 | 28.89° C | 53% | 1020.6 hPa | - | - | - | - |
| 1787758328 | 28.89° C | 52% | 1020.5 hPa | - | - | - | - |
* Rain since midnight (hover to see other rain measurements)
** Current wind speed in m/s (hover to see current wind gust speed)